[[{"header":{"parameterUnit":"m.s-1","parameterCategory":1,"la1":30.2991,"la2":30.254,"lo1":-89.0895,"lo2":-89.0444,"dy":0.0017,"dx":0.0017,"nx":28,"ny":28,"refTime":"2023-08-14T03:00:00:Z","depth":0,"parameterNumber":2,"parameterNumberName":"U-component_of_WINDS"},"data":[0,0,0,0,0,0,0,0,0,0,0,0,0,0,0,0,0,0,0,0,0,0,0,0,0,0,0,0,0,0,0,0,0,0,0,0,0,0,0,0,0,0,0,0,0,0,0,0,0,0,0,0,0,0,0,0,0,0,2.5879,2.588,0,2.5939,2.5939,2.594,2.5964,2.5964,2.5964,2.5964,2.6023,2.6025,2.6026,0,0,0,0,0,0,0,0,0,0,0,0,0,2.5786,2.5788,2.5879,2.588,2.5881,2.5939,2.5939,2.594,2.5964,2.5964,2.5964,2.5964,2.6023,2.6025,2.6027,0,0,0,0,0,0,0,0,0,0,0,0,0,2.5834,2.5788,2.5879,2.59,2.5902,2.5938,2.5939,2.594,2.5964,2.5964,2.5964,2.5964,2.6022,2.6024,2.6027,2.6047,0,0,2.6035,2.6036,0,0,0,0,0,0,0,0,2.5831,2.5837,2.5896,2.5898,2.5901,2.5944,2.5928,2.5976,2.5964,2.594,2.5964,2.5963,2.5997,2.6001,2.6013,2.605,2.6052,2.6035,2.6036,2.6038,2.6038,0,0,0,0,0,0,0,2.5828,2.5835,2.5903,2.5897,2.59,2.5906,2.5912,2.5938,2.5969,2.5942,2.5944,2.5951,2.5998,2.601,2.6015,2.6053,2.6035,2.6037,2.6039,2.604,2.6112,2.6113,0,0,0,0,0,0,2.5821,2.5832,2.5901,2.5904,2.5865,2.5908,2.5915,2.593,2.5969,2.5974,2.5951,2.5952,2.6006,2.6011,2.6017,2.6045,2.6038,2.604,2.6041,2.6112,2.6112,2.6113,0,0,0,0,0,0,2.5819,2.5827,2.5898,2.5869,2.5878,2.591,2.5926,2.5931,2.5944,2.5976,2.5981,2.5958,2.6006,2.6013,2.604,2.6047,2.6041,2.6043,2.6111,2.6112,2.6112,2.6099,0,0,0,0,0,0,2.5816,2.5826,2.5834,2.5869,2.588,2.592,2.5927,2.5933,2.5948,2.595,2.5983,2.5989,2.6007,2.6036,2.6043,2.605,2.6045,2.6111,2.6112,2.6112,2.6099,2.6099,2.6099,0,0,0,0,0,2.5813,2.5827,2.5834,2.5842,2.589,2.5921,2.5927,2.5948,2.5949,2.5957,2.5978,2.5988,2.6045,2.6039,2.6046,2.6055,2.6111,2.6111,2.6112,2.6099,2.6099,2.6099,0,0,0,0,0,0,2.579,2.5832,2.584,2.5866,2.589,2.5925,2.5935,2.5947,2.597,2.5971,2.5995,2.6002,2.6028,2.6044,2.6036,2.6078,2.6079,2.6081,2.6066,2.6066,2.6067,2.6062,2.6048,0,0,0,0,0,2.5789,2.581,2.5845,2.5864,2.5876,2.5904,2.5918,2.5932,2.5957,2.5967,2.599,2.6014,2.6038,2.6053,2.6076,2.6102,2.611,2.6112,2.6112,2.6112,2.6113,2.613,2.6132,2.6116,2.6116,2.6116,0,0,2.5785,2.581,2.5822,2.586,2.5881,2.5903,2.5912,2.5934,2.5951,2.5971,2.5998,2.6016,2.6045,2.6071,2.6084,2.6085,2.612,2.6113,2.6112,2.6114,2.6131,2.6133,2.6134,2.6116,2.6116,2.6116,0,0,2.5789,2.581,2.5829,2.585,2.5881,2.59,2.5905,2.5939,2.5952,2.598,2.5996,2.6016,2.6056,2.6077,2.6092,2.6108,2.6119,2.6115,2.6115,2.6132,2.6133,2.6134,2.6141,2.6143,2.6117,2.6117,2.6117,0,2.578,2.5814,2.5837,2.586,2.5877,2.5898,2.5918,2.5937,2.5974,2.5985,2.5986,2.6039,2.6059,2.6093,2.6097,2.6108,2.6115,2.6111,2.6131,2.6132,2.6134,2.6141,2.6143,2.6116,2.6116,2.6116,2.6116,0,2.5802,2.5826,2.5838,2.5875,2.5894,2.5915,2.5942,2.5958,2.5971,2.599,2.602,2.6046,2.6076,2.6085,2.6097,2.6121,2.6121,2.6126,2.6128,2.6135,2.6142,2.6145,2.6115,2.6115,2.6116,2.6116,0,0,2.5792,2.5844,2.5848,2.5866,2.5904,2.5922,2.5945,2.5976,2.599,2.6016,2.6036,2.6071,2.6077,2.6095,2.611,2.6125,2.6138,2.6129,2.613,2.6131,2.6167,2.6164,2.6166,2.6145,2.6146,2.6146,2.6165,0,2.5803,2.5845,2.5868,2.5901,2.5925,2.5945,2.5966,2.5991,2.601,2.6033,2.6054,2.6079,2.6084,2.6095,2.611,2.6133,2.6146,2.6132,2.6165,2.6166,2.6158,2.617,2.6165,2.6182,2.6168,2.6169,2.6169,0,2.582,2.5847,2.5882,2.592,2.593,2.5948,2.598,2.6001,2.6031,2.6044,2.6066,2.6081,2.6107,2.6107,2.6145,2.6135,2.615,2.6164,2.6165,2.6169,2.6168,2.6175,2.6188,2.6191,2.6173,2.6173,2.6173,0,2.5811,2.5856,2.5884,2.5898,2.5942,2.5955,2.5973,2.6003,2.6021,2.6049,2.6061,2.6091,2.6107,2.613,2.6154,2.6151,2.619,2.6191,2.6202,2.6202,2.6209,2.6208,2.6225,2.6217,2.6217,2.6217,2.6217,0,2.582,2.5841,2.5881,2.5898,2.5923,2.595,2.5974,2.5995,2.6022,2.6044,2.6063,2.6084,2.6114,2.6138,2.6157,2.6186,2.6193,2.6205,2.621,2.6204,2.6202,2.6214,2.6214,2.6218,2.6218,2.6218,2.6218,0,2.5813,2.5841,2.5873,2.5913,2.5923,2.594,2.5974,2.5993,2.6014,2.6042,2.605,2.6082,2.6113,2.6139,2.6178,2.6191,2.6221,2.6227,2.6212,2.6214,2.6224,2.6224,2.625,2.6256,2.6243,2.6243,2.6243,0,2.5818,2.5835,2.5878,2.5894,2.5913,2.594,2.5959,2.5986,2.6006,2.6043,2.6057,2.6089,2.6116,2.6163,2.619,2.6221,2.6228,2.6236,2.6233,2.6227,2.623,2.6229,2.6232,2.6235,2.6235,2.6235,2.6235,0,2.5823,2.5836,2.5863,2.5896,2.5919,2.5946,2.5973,2.5985,2.6018,2.6039,2.6071,2.6092,2.6134,2.6166,2.62,2.622,2.6234,2.6236,2.6241,2.6235,2.6226,2.6232,2.6213,2.6235,2.6235,2.6235,2.6235,2.6235,2.5823,2.584,2.5874,2.5904,2.5928,2.5954,2.5974,2.5998,2.6025,2.6062,2.6077,2.611,2.6142,2.619,2.621,2.6237,2.6239,2.6245,2.6246,2.6248,2.6248,2.6221,2.6243,2.6243,2.6243,2.6243,2.6243,0,2.583,2.5854,2.5881,2.592,2.5944,2.5957,2.5988,2.6008,2.6037,2.6066,2.6093,2.6131,2.6163,2.6194,2.6227,2.6243,2.625,2.6251,2.625,2.6255,2.6243,2.6236,2.6245,2.6245,2.6245,2.6245,2.6245,2.6245,2.5837,2.5868,2.5886,2.5929,2.5953,2.5986,2.6003,2.6028,2.6051,2.6093,2.612,2.6141,2.6171,2.6208,2.6238,2.6247,2.6259,2.6258,2.6268,2.6256,2.6256,2.6255,2.6249,2.626,2.626,2.6279,2.6279,2.6279]},{"header":{"parameterUnit":"m.s-1","parameterCategory":1,"la1":30.2991,"la2":30.254,"lo1":-89.0895,"lo2":-89.0444,"dy":0.0017,"dx":0.0017,"nx":28,"ny":28,"refTime":"2023-08-14T03:00:00:Z","depth":0,"parameterNumber":3,"parameterNumberName":"V-component_of_WINDS"},"data":[0,0,0,0,0,0,0,0,0,0,0,0,0,0,0,0,0,0,0,0,0,0,0,0,0,0,0,0,0,0,0,0,0,0,0,0,0,0,0,0,0,0,0,0,0,0,0,0,0,0,0,0,0,0,0,0,0,0,-1.5654,-1.5654,0,-1.5654,-1.5654,-1.5654,-1.5633,-1.5633,-1.5632,-1.5632,-1.5632,-1.5632,-1.5633,0,0,0,0,0,0,0,0,0,0,0,0,0,-1.5636,-1.5636,-1.5654,-1.5654,-1.5654,-1.5654,-1.5654,-1.5654,-1.5633,-1.5633,-1.5632,-1.5631,-1.5632,-1.5632,-1.5633,0,0,0,0,0,0,0,0,0,0,0,0,0,-1.5641,-1.5636,-1.5654,-1.5644,-1.5643,-1.5654,-1.5654,-1.5654,-1.5634,-1.5633,-1.5632,-1.5631,-1.5632,-1.5632,-1.5633,-1.5655,0,0,-1.5635,-1.5636,0,0,0,0,0,0,0,0,-1.564,-1.5641,-1.5645,-1.5644,-1.5643,-1.5643,-1.5648,-1.5654,-1.5634,-1.5637,-1.5632,-1.5631,-1.5636,-1.5637,-1.5638,-1.5655,-1.5655,-1.5636,-1.5636,-1.5636,-1.5637,0,0,0,0,0,0,0,-1.564,-1.5641,-1.5654,-1.5645,-1.5644,-1.5639,-1.5639,-1.5649,-1.5641,-1.5637,-1.5635,-1.5636,-1.5636,-1.5638,-1.5638,-1.5655,-1.5636,-1.5636,-1.5637,-1.5637,-1.569,-1.569,0,0,0,0,0,0,-1.5641,-1.5641,-1.5654,-1.5654,-1.564,-1.564,-1.564,-1.5644,-1.5641,-1.564,-1.5636,-1.5635,-1.5637,-1.5637,-1.5638,-1.5664,-1.5636,-1.5637,-1.5638,-1.5689,-1.569,-1.5691,0,0,0,0,0,0,-1.5641,-1.5642,-1.5654,-1.5647,-1.5648,-1.5641,-1.5646,-1.5644,-1.5646,-1.5641,-1.5639,-1.564,-1.5636,-1.5637,-1.5651,-1.5664,-1.5637,-1.5638,-1.5688,-1.5689,-1.569,-1.5715,0,0,0,0,0,0,-1.564,-1.5642,-1.565,-1.5648,-1.5649,-1.5667,-1.5647,-1.5645,-1.5648,-1.5646,-1.5644,-1.5643,-1.5636,-1.565,-1.5652,-1.5664,-1.5639,-1.5686,-1.5688,-1.569,-1.5713,-1.5717,-1.572,0,0,0,0,0,-1.564,-1.5657,-1.5651,-1.5653,-1.5658,-1.5667,-1.5668,-1.566,-1.5649,-1.5657,-1.5654,-1.5643,-1.5662,-1.5652,-1.5653,-1.5666,-1.5686,-1.5688,-1.569,-1.5711,-1.5716,-1.572,0,0,0,0,0,0,-1.5661,-1.5656,-1.5649,-1.5666,-1.5667,-1.5664,-1.5673,-1.5665,-1.5669,-1.5667,-1.5656,-1.5656,-1.5672,-1.567,-1.5659,-1.5687,-1.5672,-1.5674,-1.5688,-1.5692,-1.5696,-1.5696,-1.5639,0,0,0,0,0,-1.5668,-1.5675,-1.5671,-1.5686,-1.5687,-1.568,-1.5684,-1.5678,-1.5678,-1.5679,-1.5676,-1.5677,-1.5684,-1.5688,-1.5693,-1.5713,-1.5712,-1.5723,-1.5726,-1.573,-1.5732,-1.5743,-1.5747,-1.5698,-1.5698,-1.5698,0,0,-1.5681,-1.568,-1.5685,-1.569,-1.569,-1.5699,-1.5681,-1.569,-1.5696,-1.568,-1.5693,-1.5691,-1.5692,-1.5709,-1.5716,-1.5708,-1.5746,-1.5732,-1.5735,-1.5735,-1.5745,-1.575,-1.5754,-1.5699,-1.5699,-1.5699,0,0,-1.5711,-1.571,-1.5723,-1.5724,-1.5725,-1.572,-1.5724,-1.5722,-1.572,-1.5733,-1.5721,-1.5728,-1.5739,-1.5741,-1.5743,-1.5774,-1.5764,-1.5776,-1.5796,-1.5806,-1.581,-1.5814,-1.5825,-1.583,-1.5779,-1.5779,-1.5779,0,-1.5727,-1.574,-1.5731,-1.5741,-1.5744,-1.573,-1.5744,-1.5745,-1.5747,-1.575,-1.5741,-1.5755,-1.5755,-1.5772,-1.578,-1.5782,-1.5786,-1.5776,-1.5811,-1.5814,-1.5817,-1.5828,-1.5832,-1.578,-1.578,-1.578,-1.578,0,-1.5761,-1.5769,-1.578,-1.5783,-1.5787,-1.5799,-1.5793,-1.5798,-1.5792,-1.5788,-1.5802,-1.5801,-1.5807,-1.581,-1.5804,-1.5827,-1.5822,-1.5812,-1.5796,-1.5823,-1.5833,-1.5837,-1.5782,-1.5782,-1.5781,-1.5781,0,0,-1.5802,-1.5801,-1.5805,-1.5807,-1.5808,-1.5814,-1.5826,-1.5832,-1.5837,-1.5839,-1.5849,-1.5859,-1.585,-1.5853,-1.5846,-1.5856,-1.5882,-1.5845,-1.5845,-1.5852,-1.5908,-1.5916,-1.592,-1.5876,-1.5876,-1.5877,-1.5908,0,-1.5831,-1.5851,-1.5844,-1.5864,-1.5872,-1.586,-1.587,-1.5872,-1.587,-1.5877,-1.5874,-1.5882,-1.5869,-1.587,-1.5879,-1.5877,-1.5893,-1.5874,-1.5885,-1.5885,-1.5885,-1.5926,-1.5933,-1.5963,-1.5912,-1.5912,-1.5913,0,-1.5866,-1.5871,-1.5892,-1.5893,-1.5896,-1.5905,-1.591,-1.5917,-1.5919,-1.5917,-1.592,-1.5912,-1.5924,-1.5909,-1.5925,-1.5913,-1.5917,-1.5916,-1.5917,-1.5918,-1.59,-1.5927,-1.5972,-1.5976,-1.5919,-1.5919,-1.5918,0,-1.5895,-1.5907,-1.5921,-1.5923,-1.5923,-1.593,-1.5931,-1.5932,-1.5936,-1.5941,-1.5944,-1.595,-1.5953,-1.5958,-1.5952,-1.5941,-1.597,-1.5953,-1.5968,-1.5968,-1.5974,-1.5974,-1.602,-1.5977,-1.5977,-1.5977,-1.5977,0,-1.5928,-1.5941,-1.5934,-1.5943,-1.5958,-1.5951,-1.5966,-1.5965,-1.5966,-1.5975,-1.5965,-1.5973,-1.5965,-1.5973,-1.5969,-1.5983,-1.5985,-1.5983,-1.5982,-1.5984,-1.5984,-1.5986,-1.5984,-1.5978,-1.5978,-1.5978,-1.5977,0,-1.5962,-1.5958,-1.5973,-1.5972,-1.5972,-1.5984,-1.5983,-1.5992,-1.5989,-1.6,-1.6003,-1.5999,-1.6007,-1.6002,-1.6011,-1.6008,-1.6027,-1.6023,-1.6027,-1.6026,-1.6041,-1.6039,-1.609,-1.6096,-1.6049,-1.6049,-1.605,0,-1.5983,-1.5993,-1.5994,-1.5999,-1.6001,-1.6009,-1.6014,-1.6007,-1.6012,-1.6016,-1.6024,-1.6032,-1.6038,-1.6053,-1.6051,-1.6058,-1.6054,-1.6071,-1.6055,-1.6057,-1.6055,-1.6054,-1.6055,-1.6074,-1.6075,-1.6075,-1.6076,0,-1.6021,-1.6018,-1.6025,-1.6032,-1.6038,-1.6043,-1.6047,-1.6052,-1.6045,-1.6052,-1.6061,-1.6066,-1.6075,-1.6084,-1.609,-1.609,-1.6082,-1.6081,-1.6085,-1.6087,-1.6089,-1.6088,-1.6036,-1.608,-1.6079,-1.6079,-1.6079,-1.6079,-1.6049,-1.6058,-1.606,-1.6069,-1.6071,-1.6076,-1.6084,-1.6083,-1.609,-1.6098,-1.6094,-1.6104,-1.6107,-1.6115,-1.6117,-1.6125,-1.6118,-1.6124,-1.6125,-1.6126,-1.6129,-1.6088,-1.6126,-1.6126,-1.6126,-1.6126,-1.6126,0,-1.6086,-1.6088,-1.6096,-1.6102,-1.6109,-1.6101,-1.6106,-1.6112,-1.6122,-1.6125,-1.6132,-1.6143,-1.6151,-1.615,-1.6158,-1.6165,-1.6161,-1.6167,-1.6166,-1.6167,-1.6134,-1.613,-1.617,-1.617,-1.617,-1.617,-1.617,-1.617,-1.6107,-1.6122,-1.612,-1.6136,-1.6138,-1.6149,-1.6152,-1.6156,-1.6159,-1.6172,-1.6179,-1.6178,-1.618,-1.6188,-1.6195,-1.6195,-1.6198,-1.6206,-1.6204,-1.6173,-1.6169,-1.6165,-1.6161,-1.6206,-1.6206,-1.6235,-1.6236,-1.6236]}]]